Location: Erp
(42.9417°N, 1.2009°E)
Time: 14:25:39
(UTC+00:00)

Cosmos 292 Rocket - Visible Passes

Search period start: 11 April 2026 00:00
Search period end: 21 April 2026 00:00
Orbit: 661 x 682 km, 74.0° (Epoch: 11 April)

Date Brightness Start Highest point End Pass type
(mag) Time Alt. Az. Time Alt. Az. Time Alt. Az.
11 Apr 6.1 00:57:48 10° N 01:00:01 21° NNE 01:00:01 21° NNE visible
11 Apr 6.0 02:37:32 10° NW 02:38:14 14° NW 02:38:14 14° NW visible
12 Apr 5.8 01:31:28 10° NNW 01:33:13 22° N 01:33:13 22° N visible
13 Apr 6.3 00:26:22 10° N 00:28:17 18° NNE 00:28:17 18° NNE visible
13 Apr 6.1 02:05:48 10° NNW 02:06:30 14° NW 02:06:30 14° NW visible
14 Apr 6.0 00:59:53 10° NNW 01:01:35 21° N 01:01:35 21° N visible
14 Apr 6.3 23:54:58 10° N 23:56:42 16° NNE 23:56:42 16° NNE visible
15 Apr 6.2 01:34:05 10° NNW 01:34:56 15° NNW 01:34:56 15° NNW visible
16 Apr 6.0 00:28:18 10° N 00:30:05 21° N 00:30:05 21° N visible
16 Apr 6.4 23:23:37 10° NNE 23:25:16 15° NE 23:25:16 15° NE visible
17 Apr 6.2 01:02:23 10° NNW 01:03:29 17° NNW 01:03:29 17° NNW visible
17 Apr 6.0 23:56:46 10° N 23:58:42 22° N 23:58:42 22° N visible
18 Apr 6.3 22:52:22 10° NNE 22:53:55 13° NE 22:53:55 13° NE visible
19 Apr 6.1 00:30:43 10° NNW 00:32:09 20° NNW 00:32:09 20° NNW visible
19 Apr 5.9 23:25:14 10° N 23:27:23 22° NNE 23:27:23 22° NNE visible
20 Apr 6.4 01:05:24 10° NW 01:05:37 11° NW 01:05:37 11° NW visible
20 Apr 6.3 22:21:18 10° NNE 22:22:39 12° NE 22:22:39 12° NE visible
